GW5908 Weather Reports


time (UTC)temp
F
wind
direction
speed
knots
gust
knots
rain 1hr
in
rain 24hr
in
rain mn
in
humidity
%
barometer
mb
20260505070543 55 183 0.9 1.7 0.05 0.09 0.09 64 1007.1
20260505070039 56 200 0.9 5.2 0.00 0.08 0.08 60 1006.4
20260505065535 57 51 2.6 7.8 0.00 0.08 0.08 58 1006.4
20260505065032 57 88 1.7 6.1 0.00 0.08 0.08 61 1006.7
20260505064528 57 163 0.0 1.7 0.00 0.08 0.08 61 1005.9
20260505064027 57 138 0.9 2.6 0.00 0.08 0.08 59 1006.1
20260505063524 57 0 5.2 7.8 0.00 0.08 0.08 61 1005.3
20260505063019 57 9 1.7 5.2 0.00 0.08 0.08 68 1005.4
20260505062516 58 174 0.0 1.7 0.00 0.08 0.08 70 1005.8
20260505062014 58 177 0.0 0.9 0.00 0.08 0.08 67 1005.5
20260505061511 58 16 3.5 6.1 0.00 0.08 0.08 66 1005.1
20260505061009 59 140 2.6 7.0 0.00 0.08 0.08 71 1004.8
20260505060506 58 41 2.6 2.6 0.00 0.08 0.08 72 1004.8
20260505060002 58 288 2.6 2.6 0.00 0.08 0.08 74 1004.7
20260505055458 58 23 1.7 4.3 0.00 0.08 0.08 74 1004.4
20260505054955 58 50 1.7 1.7 0.00 0.08 0.08 76 1004.3
20260505054452 57 140 1.7 5.2 0.00 0.08 0.08 78 1003.8
20260505053950 57 149 0.9 1.7 0.00 0.08 0.08 79 1004.2
20260505053447 57 136 0.9 2.6 0.00 0.08 0.08 78 1004.5
20260505052944 57 26 0.9 1.7 0.00 0.08 0.08 78 1004.3
20260505052441 57 180 0.0 1.7 0.07 0.08 0.08 80 1004.1
20260505051938 58 121 1.7 1.7 0.19 0.08 0.08 78 1003.8
20260505051435 58 129 1.7 2.6 0.24 0.07 0.07 77 1003.9
20260505050933 59 58 3.5 7.0 0.31 0.05 0.05 75 1004.2
20260505050431 62 30 3.5 9.6 0.19 0.03 0.03 69 1004.0
20260505041358 71 343 0.9 2.6 0.00 0.00 0.00 69 1002.6
20260505040855 71 203 1.7 2.6 0.00 0.00 0.00 69 1002.6
20260505040353 71 167 0.0 2.6 0.00 0.00 0.00 69 1002.3
20260505035850 71 172 0.9 1.7 0.00 0.00 0.00 69 1002.4
20260505035345 71 158 0.9 0.9 0.00 0.00 0.00 69 1002.4
20260505034843 71 174 1.7 1.7 0.00 0.00 0.00 69 1002.3
20260505034339 71 148 1.7 1.7 0.00 0.00 0.00 69 1002.3
20260505033837 71 163 0.9 1.7 0.00 0.00 0.00 68 1002.3
20260505033333 70 155 2.6 2.6 0.00 0.00 0.00 68 1002.6
20260505032832 70 153 0.9 0.9 0.00 0.00 0.00 68 1002.6
20260505032328 71 154 0.0 0.9 0.00 0.00 0.00 68 1002.2
20260505031825 71 155 0.0 0.9 0.00 0.00 0.00 66 1002.3
20260505031321 71 167 0.0 1.7 0.00 0.00 0.00 66 1002.2
20260505030819 70 141 1.7 2.6 0.00 0.00 0.00 66 1002.1
20260505030315 70 164 0.0 1.7 0.00 0.00 0.00 66 1002.2
20260505025810 69 164 0.9 1.7 0.00 0.00 0.00 67 1002.1
20260505025308 68 163 0.0 0.9 0.00 0.00 0.00 68 1002.1
20260505024807 68 164 0.0 0.0 0.00 0.00 0.00 68 1002.2
20260505024304 68 196 0.0 0.0 0.00 0.00 0.00 68 1001.8
20260505023801 68 196 0.0 0.0 0.00 0.00 0.00 66 1001.9
20260505023258 67 196 0.0 0.0 0.00 0.00 0.00 69 1001.7
20260505022755 68 196 0.0 0.0 0.00 0.00 0.00 68 1001.7
20260505022252 68 196 0.0 0.0 0.00 0.00 0.00 68 1001.7
20260505021749 68 196 0.0 0.0 0.00 0.00 0.00 69 1001.5
20260505021246 68 196 0.0 0.0 0.00 0.00 0.00 68 1001.4
20260505020741 68 196 0.0 0.0 0.00 0.00 0.00 68 1001.4
20260505020237 68 196 0.0 0.0 0.00 0.00 0.00 67 1001.5
20260505015734 68 196 0.0 0.0 0.00 0.00 0.00 69 1001.3
20260505015231 68 196 0.0 0.0 0.00 0.00 0.00 69 1001.3
20260505014728 68 196 0.0 0.0 0.00 0.00 0.00 68 1001.1
20260505014225 69 196 0.0 0.0 0.00 0.00 0.00 68 1000.7
20260505013722 70 196 0.0 0.0 0.00 0.00 0.00 63 1001.2
20260505013219 71 196 0.0 0.0 0.00 0.00 0.00 61 1001.1
20260505012717 71 196 0.0 0.0 0.00 0.00 0.00 60 1000.8
20260505012214 71 196 0.0 0.0 0.00 0.00 0.00 61 1000.9
20260505011710 72 196 0.0 0.0 0.00 0.00 0.00 62 1000.7
20260505011208 73 197 0.0 0.0 0.00 0.00 0.00 58 1000.9
20260505010702 74 197 0.0 0.0 0.00 0.00 0.00 54 1000.5
20260505010200 75 197 0.0 0.0 0.00 0.00 0.00 52 1000.5
20260505005655 75 197 0.0 0.0 0.00 0.00 0.00 53 1000.6
20260505005153 76 197 0.0 0.0 0.00 0.00 0.00 51 1000.5
20260505004650 77 197 0.0 0.0 0.00 0.00 0.00 50 1000.5
20260505004146 77 197 0.0 0.0 0.00 0.00 0.00 50 1000.6
20260505003644 78 197 0.0 0.0 0.00 0.00 0.00 48 1000.3
20260505003141 78 236 2.6 2.6 0.00 0.00 0.00 46 1000.2
20260505002637 79 188 0.0 0.9 0.00 0.00 0.00 47 1000.2
20260505002135 79 162 1.7 1.7 0.00 0.00 0.00 45 1000.3
20260505001632 79 200 0.9 0.9 0.00 0.00 0.00 45 1000.2
20260505001130 79 189 0.9 2.6 0.00 0.00 0.00 45 1000.3
20260505000627 79 192 0.9 2.6 0.00 0.00 0.00 45 1000.2
20260505000125 79 230 1.7 1.7 0.00 0.00 0.00 45 1000.2
20260504235621 79 194 0.9 1.7 0.00 0.00 0.00 45 1000.5
20260504235117 79 210 2.6 4.3 0.00 0.00 0.00 43 1000.3
20260504234615 79 189 0.0 0.9 0.00 0.00 0.00 46 1000.3
20260504234112 80 192 0.0 2.6 0.00 0.00 0.00 46 1000.1
20260504233607 80 231 0.9 2.6 0.00 0.00 0.00 43 1000.2
20260504233104 80 180 0.9 1.7 0.00 0.00 0.00 44 1000.3
20260504232601 80 228 1.7 4.3 0.00 0.00 0.00 43 1000.3
20260504232058 80 232 0.9 4.3 0.00 0.00 0.00 42 1000.3
20260504231555 81 231 1.7 4.3 0.00 0.00 0.00 43 1000.2
20260504231051 82 226 0.9 5.2 0.00 0.00 0.00 41 1000.3
20260504230547 83 206 3.5 5.2 0.00 0.00 0.00 39 1000.2
20260504230046 83 208 0.9 1.7 0.00 0.00 0.00 39 1000.3
20260504225543 82 222 0.9 5.2 0.00 0.00 0.00 41 1000.3
20260504225040 82 251 1.7 5.2 0.00 0.00 0.00 41 1000.4
20260504224536 83 208 0.0 1.7 0.00 0.00 0.00 39 1000.1
20260504224034 82 210 0.9 1.7 0.00 0.00 0.00 39 1000.5
20260504223531 81 209 0.9 1.7 0.00 0.00 0.00 41 1000.3
20260504223026 80 186 1.7 4.3 0.00 0.00 0.00 40 1000.3
20260504222523 80 183 0.9 2.6 0.00 0.00 0.00 45 1000.5
20260504222021 80 175 0.0 2.6 0.00 0.00 0.00 41 1000.5
20260504221518 80 204 1.7 4.3 0.00 0.00 0.00 43 1000.4
20260504221015 80 188 0.9 2.6 0.00 0.00 0.00 41 1000.6
20260504220511 80 206 1.7 4.3 0.00 0.00 0.00 42 1000.7
20260504220008 80 238 0.9 2.6 0.00 0.00 0.00 42 1000.5
20260504215505 80 186 4.3 7.0 0.00 0.00 0.00 42 1000.6
20260504215003 81 209 3.5 7.8 0.00 0.00 0.00 43 1000.8
20260504214458 81 191 0.0 2.6 0.00 0.00 0.00 43 1000.7
20260504213955 80 170 0.0 1.7 0.00 0.00 0.00 45 1000.8
20260504213450 80 186 0.9 6.1 0.00 0.00 0.00 43 1000.9
20260504212948 80 181 3.5 5.2 0.00 0.00 0.00 42 1000.7
20260504212444 80 259 4.3 5.2 0.00 0.00 0.00 41 1000.8
20260504211942 81 202 3.5 8.7 0.00 0.00 0.00 42 1000.8
20260504211438 81 233 2.6 2.6 0.00 0.00 0.00 43 1000.7
20260504210936 82 229 2.6 5.2 0.00 0.00 0.00 41 1001.0
20260504210432 82 201 1.7 4.3 0.00 0.00 0.00 42 1000.7
20260504205929 82 183 2.6 4.3 0.00 0.00 0.00 42 1000.8
20260504205427 83 202 3.5 5.2 0.00 0.00 0.00 40 1000.8
20260504204925 82 140 2.6 2.6 0.00 0.00 0.00 45 1000.8
20260504204423 83 197 1.7 5.2 0.00 0.00 0.00 41 1000.9
20260504203922 82 191 1.7 4.3 0.00 0.00 0.00 39 1000.9
20260504203419 83 174 0.0 4.3 0.00 0.00 0.00 43 1000.9
20260504202915 82 231 2.6 4.3 0.00 0.00 0.00 40 1001.2
20260504202412 82 190 0.9 5.2 0.00 0.00 0.00 45 1001.1
20260504201908 82 278 6.1 7.8 0.00 0.00 0.00 41 1001.0
20260504201406 82 231 2.6 4.3 0.00 0.00 0.00 42 1001.0
20260504200903 82 263 3.5 5.2 0.00 0.00 0.00 43 1001.0
20260504200359 82 206 0.9 2.6 0.00 0.00 0.00 47 1001.1
20260504195856 81 148 3.5 5.2 0.00 0.00 0.00 43 1001.0
20260504195352 82 145 0.9 7.0 0.00 0.00 0.00 43 1001.2
20260504194849 82 115 2.6 5.2 0.00 0.00 0.00 45 1001.2
20260504194345 82 257 2.6 5.2 0.00 0.00 0.00 39 1001.2
20260504193841 81 129 1.7 1.7 0.00 0.00 0.00 41 1001.4
20260504193338 81 224 4.3 6.1 0.00 0.00 0.00 40 1001.4
20260504192837 81 162 0.9 2.6 0.00 0.00 0.00 42 1001.5
20260504192334 81 229 2.6 4.3 0.00 0.00 0.00 41 1001.3
20260504191833 80 217 0.9 6.1 0.00 0.00 0.00 43 1001.3
20260504191330 80 203 0.9 4.3 0.00 0.00 0.00 43 1001.4
20260504190825 80 216 4.3 5.2 0.00 0.00 0.00 40 1001.6
20260504190322 80 349 1.7 4.3 0.00 0.00 0.00 46 1001.3
20260504185818 80 35 2.6 4.3 0.00 0.00 0.00 43 1001.5
20260504185315 80 236 1.7 5.2 0.00 0.00 0.00 43 1001.7
20260504184811 79 197 4.3 7.0 0.00 0.00 0.00 42 1001.5
20260504184307 79 163 6.1 8.7 0.00 0.00 0.00 44 1001.5
20260504183803 79 195 2.6 6.1 0.00 0.00 0.00 45 1001.5
20260504183300 79 209 1.7 2.6 0.00 0.00 0.00 41 1001.6
20260504182758 79 263 1.7 6.1 0.00 0.00 0.00 43 1001.8
20260504182255 79 169 1.7 6.1 0.00 0.00 0.00 43 1001.8
20260504181753 79 142 2.6 5.2 0.00 0.00 0.00 45 1001.8
20260504181250 78 187 0.9 1.7 0.00 0.00 0.00 45 1001.7
20260504180749 78 168 1.7 6.1 0.00 0.00 0.00 44 1001.8
20260504180247 79 172 1.7 5.2 0.00 0.00 0.00 43 1002.1
20260504175744 79 199 1.7 5.2 0.00 0.00 0.00 43 1002.1
20260504175241 78 155 1.7 4.3 0.00 0.00 0.00 45 1002.0
20260504174739 78 186 2.6 4.3 0.00 0.00 0.00 43 1002.1
20260504174237 78 184 2.6 5.2 0.00 0.00 0.00 45 1002.0
20260504173733 78 208 2.6 5.2 0.00 0.00 0.00 44 1001.9
20260504173230 77 229 3.5 5.2 0.00 0.00 0.00 46 1002.2
20260504172727 77 214 2.6 6.1 0.00 0.00 0.00 44 1002.1
20260504172223 77 216 1.7 1.7 0.00 0.00 0.00 44 1002.2
20260504171720 77 119 3.5 4.3 0.00 0.00 0.00 46 1002.0
20260504171217 77 183 2.6 6.1 0.00 0.00 0.00 46 1002.2
20260504170713 77 180 0.0 2.6 0.00 0.00 0.00 50 1002.3
20260504170211 76 212 4.3 5.2 0.00 0.00 0.00 45 1002.1
20260504160129 76 188 1.7 2.6 0.00 0.00 0.00 46 1002.3
20260504151057 74 153 1.7 2.6 0.00 0.00 0.00 46 1002.4
20260504150554 73 162 2.6 5.2 0.00 0.00 0.00 49 1002.6
20260504141020 67 181 0.0 1.7 0.00 0.00 0.00 53 1002.9
20260504140516 68 213 2.6 5.2 0.00 0.00 0.00 53 1002.8
20260504130441 68 195 2.6 6.1 0.00 0.00 0.00 50 1002.4
20260504110328 64 203 0.9 2.6 0.00 0.00 0.00 53 1002.8
20260504100246 66 192 0.9 2.6 0.00 0.00 0.00 50 1003.4
20260504081639 65 153 3.5 4.3 0.00 0.00 0.00 51 1003.9
20260504081135 64 217 2.6 2.6 0.00 0.00 0.00 52 1003.9
20260504080632 64 162 0.0 0.9 0.00 0.00 0.00 55 1004.1
20260504080128 64 192 0.9 4.3 0.00 0.00 0.00 53 1004.2